STARLINK-5058, 55456

Orbit data source: Space-Track

STARLINK-5058, 55456 is a payload satellite owned by SpaceX/Seattle (US) in LEO that was launched on Thu, 02 Feb 2023 UTC via an FALCON 9 launch vehicle from the Air Force Eastern Test Range (AFETR). Payload-class satellites include a variety of spacecraft equipped with specific instruments for various scientific and technological missions. These include communications satellites like Starlink; space stations such as the ISS; scientific satellites like the Hubble; Earth observation satellites from companies like Planet Labs, Umbra, and HawkEye 360; GPS; miniature CubeSats for education and research; and military/defense satellites.

Loading next visibility...
Identifier
55456, 2023-015H
Orbit
LEO
Country
Flag of USUS
Related business
Manufacturer
SpaceX/Seattle
Mission
Operational Commercial Communications
Bus & Motor
STARLINK, Unknown motor
Mass
305 kg wet, ~290 kg dry
Launch date (UTC)
2023-02-02 (3 years ago)
Launch vehicle
FALCON 9
Launch site
Air Force Eastern Test Range (AFETR)
Object type
Payload
Rocket body
Debris
Shape & HBR
Box + 1 Pan, 10.1 m
Radar Cross Section
13.562 m², Large (>1 m²)

Expand to show TLE details & history
Last TLE update: 2 days ago

TLE from 2 days ago
0 STARLINK-5058
1 55456U 23015H   26034.33523848  .00001057  00000-0  93335-4 0  9997
2 55456  42.9964 152.8778 0000978 153.5268 206.5624 15.02528755165583
Epoch: 2026-02-03T08:02Z
TLE epoch observation values (Epoch: 2026-02-03T08:02:44.604Z)
Latitude
-0.00005°
Longitude
-101.32575°
Altitude
559.486 km
Speed
7.583 km/s
True Right ascension
10h 11m 30s
True Declination
0° 00' 00"
Sunlit
Object was in full shadow at epoch
Visualization orbit readout
Latitude
Unknown
Longitude
Unknown
Altitude
Unknown
Speed
Unknown
Apparent Right ascension
Unknown
Apparent Declination
Unknown
Sunlit
N/A
Visualization observer readout
Local Sidereal Time
06:09:21
Azimuth
Unknown
Elevation
Unknown
Doppler factor
Unknown
Orbital elements
Apogee altitude
561.705 km
Perigee altitude
560.348 km
Semi-major axis
6,939.163 km
Eccentricity
0.0001
Inclination
42.9964°
RAAN
152.8778°
Arg. of periapsis
153.5268°
True anomaly
206.55739°
Mean anomaly
206.5624°
Eccentric anomaly
206.55989°
Mean motion
3.75476 °/min
Orbital period
95.88 mins
BSTAR
0.000093335
Loading maneuver chart data...
Computing Atmospheric mass density...
Loading historical data...
Loading historical data...
Loading historical data...
Loading historical data...
Loading historical data...
Loading historical data...
Loading historical data...

Documentation

Showing up to 5 results
|